sat.trackr.live / text

‹ back to catalog

STARLINK-1566

NORAD 46079 · 2020-055BE

PAYLOAD ACTIVE UNKNOWN

§ Identity

Operator
Country
US
Launch date
2020-08-07
Launch site
AFETR
Launch vehicle
Mass (kg)
RCS (m²)

Purposes: comms

External: N2YO · Heavens-Above · Gunter

§ Orbital elements

Epoch: 2026-09-19T17:53:21.873120Z

Period
94.01 min
Inclination
53.1591°
Eccentricity
0.0001603
Mean motion
15.31702039 rev/d
Perigee alt
469.6 km
Apogee alt
471.8 km
Semi-major
6,848.9 km
B*
1.7034e-5
RAAN
278.0373°
Arg perigee
71.7298°
Mean anomaly
288.3877°
Rev number
33,897

§ Raw data

STARLINK-15661 46079U 20055BE  26262.74539205  .00000163  00000+0  17034-4 0  99992 46079  53.1591 278.0373 0001603  71.7298 288.3877 15.31702039338970

JSON: /api/v1/satellites/46079 · /tle

For live sub-satellite position, see the globe view (requires WebGL).

§ Visibility from observer

Set your observer location to see the next 7 days of passes ≥ 10°. The values pass through the URL so the page stays shareable.

No JS? Fill the form by hand. The geolocation button needs JavaScript.